{"data":{"norad_id":65744,"epoch":"2026-09-20T07:00:12.767616Z","epoch_age_seconds":126512,"freshness":"FRESH","line1":"1 65744U 25216L   26263.29181444  .00023008  00000+0  68985-3 0  9995","line2":"2 65744  53.1567 146.4591 0001138  87.3449 272.7684 15.34407161 56428","mean_motion":15.34407161,"eccentricity":0.0001138,"inclination_deg":53.1567,"raan_deg":146.4591,"arg_perigee_deg":87.3449,"mean_anomaly_deg":272.7684,"bstar":0.00068985,"rev_number":5642,"period_min":93.847320098632,"perigee_km":461.90347109154,"apogee_km":463.460441486,"semimajor_km":6840.8189562888,"source":"CELESTRAK","updated_at":"2026-09-21T09:00:35.708814Z"}}